Location: Newark
(53.3503°N, 9.6158°W)
Time: 01:58:38
(UTC+00:00)

Envisat - Pass Details

Date: 23 October 2019
Orbit: 764 x 766 km, 98.1° (Epoch: 18 November)

Event Time Altitude Azimuth Distance (km) Brightness Sun altitude
Rises 18:59:46 0° 180° (S) 3,223 6.2 -14.7°
Reaches altitude 10° 19:02:08 10° 186° (S) 2,301 5.5 -15.1°
Maximum altitude 19:07:03 49° 261° (W) 986 4.0 -15.8°
Drops below altitude 10° 19:12:00 10° 336° (NNW) 2,317 5.8 -16.5°
Sets 19:14:24 0° 342° (NNW) 3,248 6.5 -16.9°
